Location: Sternwarte ZA, Rosenfeld-Brittheim
(48.2889°N, 8.6789°E)
Time: 19:44:11
(UTC+01:00)

ISS - Pass Details

Date: 13 December 2017
Orbit: 402 x 407 km, 51.6° (Epoch: 11 December)

Event Time Altitude Azimuth Distance (km) Brightness Sun altitude
Rises 18:01:26 0° 292° (WNW) 2,332 0.8 -14.2°
Reaches altitude 10° 18:03:32 10° 289° (WNW) 1,469 -0.2 -14.5°
Maximum altitude 18:06:47 62° 208° (SSW) 459 -3.4 -15.0°
Enters shadow 18:09:02 18° 130° (SE) 1,064 -2.0 -15.4°
